Location: Brno
(49.2000°N, 16.6330°E)
Time: 01:19:15
(UTC+02:00)

Transit 4A - Pass Details

Date: 04 August 2021
Orbit: 870 x 974 km, 66.8° (Epoch: 26 September)

Event Time Altitude Azimuth Distance (km) Brightness Sun altitude
Rises 23:22:16 0° 188° (S) 3,485 - -20.4°
Reaches altitude 10° 23:24:54 10° 181° (S) 2,538 - -20.6°
Exits shadow 23:29:36 38° 131° (SE) 1,316 8.2 -20.9°
Maximum altitude 23:30:17 39° 114° (ESE) 1,285 8.3 -20.9°
Drops below altitude 10° 23:35:38 10° 47° (NE) 2,526 10.4 -21.2°
Sets 23:38:15 0° 40° (NE) 3,468 11.3 -21.4°
